Regional Weather Roundup
Issued by NWS

Home | Current Version | Previous Version | Text Only | Print | Product List | Glossary Off
Versions: 1 2 3 4 5 6 7 8 9 10 11 12 13 14 15 16 17 18 19 20 21 22 23 24 25 26 27 28 29 30 31 32 33 34 35 36 37 38 39 40 41 42 43 44 45 46 47 48 49 50

000
ASUS43 KBIS 250402
RWRND

NORTH DAKOTA REGIONAL WEATHER ROUNDUP
NATIONAL WEATHER SERVICE BISMARCK ND
1100 PM CDT MON JUL 24 2017

NOTE: "FAIR" INDICATES FEW OR NO CLOUDS BELOW 12,000 FEET WITH NO
SIGNIFICANT WEATHER AND/OR OBSTRUCTIONS TO VISIBILITY.


NDZ001>003-009>011-017-250500-
NORTHWEST NORTH DAKOTA

CITY           SKY/WX    TMP DP  RH WIND       PRES   REMARKS
WILLISTON      MOCLDY    75  47  36 N6        29.85R
MINOT          TSTM      72  60  66 NW7       29.82R
MINOT AFB      CLOUDY    74  54  49 NW8       29.80R
$$

NDZ018>021-031>035-040>046-250500-
SOUTHWEST NORTH DAKOTA

CITY           SKY/WX    TMP DP  RH WIND       PRES   REMARKS
BISMARCK       PTCLDY    75  67  76 S12       29.82S
DICKINSON      CLOUDY    78  58  49 N12       29.84R
GARRISON         N/A     78  67  68 S8        29.82R
HETTINGER ARPT CLEAR     76  65  68 SE9       29.85R
$$

NDZ004>008-012>016-024-026-027-054-250500-
NORTHEAST NORTH DAKOTA

CITY           SKY/WX    TMP DP  RH WIND       PRES   REMARKS
GRAND FORKS    CLOUDY    70  65  84 SE13      29.85F
GRND FRKS AFB  CLOUDY    69  63  82 S14       29.85F
DEVILS LAKE    PTCLDY    72  65  78 SE13      29.83R
$$

NDZ022-023-025-028>030-036>039-047>053-250500-
SOUTHEAST NORTH DAKOTA

CITY           SKY/WX    TMP DP  RH WIND       PRES   REMARKS
FARGO          CLEAR     72  63  73 SE14G23   29.89S
JAMESTOWN      CLOUDY    70  64  81 SE14      29.84F
$$





USA.gov is the U.S. government's official web portal to all federal, state and local government web resources and services.